カタログに戻る

CZ-4 DEB

運用中SSO
NORAD 26280·DEBRIS·🇨🇳 China

打ち上げ Oct 14, 1999 から Taiyuan Satellite Launch Center

Loading…

次のパス (今後24時間)

TLE

最新Source: Space-Track

元期: Sep 14, 2026, 14:53 UTC

1 26280U 99057FS  26257.62057810  .00000161  00000-0  65795-4 0  9993
2 26280  98.7138 309.3198 0083612 285.2423 228.5704 14.38507250387321

AllMySatでCZ-4 DEBをリアルタイム追跡

Download on the App Store